DW4691 Weather Reports


time (UTC)temp
C
wind
direction
speed
KPH
gust
KPH
rain 1hr
cm
rain 24hr
cm
rain mn
cm
humidity
%
barometer
mb
20260506073045 25 0 0.0 0.0 0.00 0.00 0.00 88 1008.7
20260506071544 25 0 0.0 0.0 0.00 0.00 0.00 88 1009.0
20260506061553 25 100 0.0 0.0 0.00 0.00 0.00 87 1009.2
20260506050104 25 0 0.0 1.6 0.00 0.00 0.00 86 1009.1
20260506044546 25 0 0.0 6.4 0.00 0.00 0.00 85 1009.1
20260506043044 25 0 0.0 6.4 0.00 0.00 0.00 85 1009.0
20260506041557 25 0 0.0 1.6 0.00 0.00 0.00 85 1009.2
20260506040052 25 0 0.0 6.4 0.00 0.00 0.00 85 1008.9
20260506034552 25 0 0.0 4.8 0.00 0.00 0.00 85 1008.7
20260506033043 26 0 0.0 9.7 0.00 0.00 0.00 84 1008.5
20260506031548 26 0 0.0 9.7 0.00 0.00 0.00 84 1008.4
20260506030043 26 0 0.0 6.4 0.00 0.00 0.00 83 1008.2
20260506024540 26 0 0.0 3.2 0.00 0.00 0.00 83 1008.0
20260506023102 26 0 0.0 11.3 0.00 0.00 0.00 82 1007.7
20260506021552 26 0 0.0 8.0 0.00 0.00 0.00 82 1007.6
20260506020055 26 0 0.0 1.6 0.00 0.00 0.00 81 1007.4
20260506014544 26 0 0.0 3.2 0.00 0.00 0.00 81 1007.3
20260506013052 26 0 0.0 0.0 0.00 0.00 0.00 81 1007.1
20260506011547 26 0 0.0 6.4 0.00 0.00 0.00 80 1007.0
20260506010124 26 0 0.0 6.4 0.00 0.00 0.00 79 1006.7
20260506004546 27 0 0.0 4.8 0.00 0.00 0.00 79 1006.6
20260506003054 27 0 0.0 6.4 0.00 0.00 0.00 78 1006.6
20260506001553 27 0 0.0 9.7 0.00 0.00 0.00 78 1006.7
20260506000044 27 0 0.0 4.8 0.00 0.00 0.00 77 1006.5
20260505234543 27 0 0.0 6.4 0.00 0.00 0.00 77 1006.6
20260505233054 27 112 0.0 11.3 0.00 0.00 0.00 77 1006.3
20260505231549 28 0 0.0 6.4 0.00 0.00 0.00 76 1006.4
20260505230110 28 0 1.6 12.9 0.00 0.00 0.00 76 1006.3
20260505224541 28 0 0.0 4.8 0.00 0.00 0.00 76 1006.4
20260505223050 28 0 0.0 3.2 0.00 0.00 0.00 74 1006.2
20260505221550 28 0 0.0 4.8 0.00 0.00 0.00 75 1006.5
20260505220052 28 0 0.0 6.4 0.00 0.00 0.00 73 1006.5
20260505214548 28 0 0.0 11.3 0.00 0.00 0.00 74 1006.8
20260505213045 28 0 0.0 6.4 0.00 0.00 0.00 74 1007.0
20260505211549 29 0 0.0 6.4 0.00 0.00 0.00 71 1007.1
20260505210056 29 0 0.0 6.4 0.00 0.00 0.00 73 1007.1
20260505204549 29 116 0.0 6.4 0.00 0.00 0.00 74 1007.2
20260505203040 28 263 0.0 6.4 0.00 0.00 0.00 76 1007.4
20260505201549 28 0 0.0 8.0 0.00 0.00 0.00 76 1007.7
20260505200048 28 0 1.6 6.4 0.00 0.00 0.00 74 1007.9
20260505194545 28 0 0.0 14.5 0.00 0.00 0.00 76 1008.1
20260505193101 28 148 1.6 11.3 0.00 0.00 0.00 75 1008.3
20260505191543 28 0 0.0 8.0 0.00 0.00 0.00 75 1008.3
20260505190049 28 0 0.0 8.0 0.00 0.00 0.00 76 1008.4
20260505184549 28 0 0.0 9.7 0.00 0.00 0.00 79 1008.5
20260505183051 27 0 0.0 8.0 0.00 0.00 0.00 82 1008.7
20260505181546 26 0 0.0 4.8 0.00 0.00 0.00 82 1008.9
20260505180040 26 0 0.0 9.7 0.00 0.00 0.00 82 1008.9
20260505174549 26 0 0.0 6.4 0.00 0.00 0.00 82 1009.0
20260505173054 26 0 0.0 6.4 0.00 0.00 0.00 81 1009.1
20260505171544 26 89 1.6 9.7 0.00 0.00 0.00 81 1009.1
20260505170043 26 0 0.0 4.8 0.00 0.00 0.00 83 1009.2
20260505164551 26 0 0.0 11.3 0.00 0.00 0.00 84 1009.4
20260505163051 26 0 0.0 4.8 0.00 0.00 0.00 84 1009.4
20260505161548 25 0 0.0 1.6 0.00 0.00 0.00 85 1009.3
20260505153043 25 0 0.0 12.9 0.00 0.00 0.00 85 1009.0
20260505151538 25 141 0.0 11.3 0.00 0.00 0.00 85 1009.0
20260505124553 22 0 0.0 0.0 0.00 0.00 0.00 90 1008.5
20260505123042 22 0 0.0 0.0 0.00 0.00 0.00 90 1008.2
20260505121546 21 0 0.0 3.2 0.00 0.00 0.00 90 1008.5
20260505120046 21 0 0.0 0.0 0.00 0.00 0.00 90 1008.3
20260505114544 21 0 0.0 3.2 0.00 0.00 0.00 90 1008.0
20260505113044 21 0 0.0 4.8 0.00 0.00 0.00 90 1008.2
20260505111543 21 0 0.0 0.0 0.00 0.00 0.00 90 1008.3
20260505101550 21 0 0.0 0.0 0.00 0.00 0.00 89 1008.3
20260505100045 21 0 0.0 0.0 0.00 0.00 0.00 89 1008.3
20260505094547 21 0 0.0 0.0 0.00 0.00 0.00 89 1008.5
20260505093057 21 0 0.0 0.0 0.00 0.00 0.00 89 1008.5
20260505091549 21 0 0.0 0.0 0.00 0.00 0.00 89 1008.6
20260505090048 21 0 0.0 0.0 0.00 0.00 0.00 88 1008.6
20260505084553 21 0 0.0 0.0 0.00 0.00 0.00 88 1008.7
20260505083055 21 0 0.0 3.2 0.00 0.00 0.00 87 1008.7
20260505081556 21 0 0.0 1.6 0.00 0.00 0.00 87 1009.1